Home   Weather   Lübbecke   Past weeks

Flag for Germany Past Weather in Lübbecke, North Rhine-Westphalia, Germany — Yesterday and Last 2 Weeks

37 °F

Light fog.

Feels Like: 37 °F
Forecast: 43 / 54 °F
Wind: 1 mph from Southeast

Location: Bueckeburg

Current Time: Oct 26, 2016 at 2:37:43 AM

Latest Report: Oct 26, 2016 at 1:20 AM

Visibility: 0 mi

Pressure: 30.33 "Hg

Humidity: 100%

Dew Point: 37 °F

Location of LübbeckeLocation

Past Weather in Lübbecke — Graph


Lübbecke Temperature Yesterday

Maximum temperature yesterday: 48 °F (at 2:20 PM)
Minimum temperature yesterday: 41 °F (at 11:20 PM)
Average temperature yesterday: 46 °F

High & Low Weather Summary for the Past Weeks

High63 °F (Oct 16, 3:20 PM)100% (Oct 11, 1:20 AM)30.33 "Hg (Oct 11, 1:20 AM)
Low34 °F (Oct 23, 8:20 AM)59% (Oct 16, 3:20 PM)29.71 "Hg (Oct 15, 5:20 AM)
Average47 °F91%30.02 "Hg
* Reported Oct 11 1:20 AM — Oct 26 1:20 AM, Lübbecke, Weather by CustomWeather, © 2016

Note: Actual official high and low records may vary slightly from our data, if they occured in-between our weather recording intervals... More about our weather records


Lübbecke Weather History for the Previous 24 Hours

Scroll right to see more
Time TempWeatherWind HumidityBarometerVisibility
1:20 AM
Wed, Oct 26
37 °FLight fog.1 mph100%30.33 "Hg1 mi
12:20 AM37 °FLight fog.3 mph100%30.33 "Hg0 mi
11:20 PM
Tue, Oct 25
41 °FLight fog.1 mph100%30.33 "Hg0 mi
10:57 PM43 °FFog.1 mph100%30.33 "Hg2 mi
10:20 PM45 °FFog.1 mph93%30.33 "Hg3 mi
9:20 PM46 °FFog.5 mph93%30.30 "Hg3 mi
8:20 PM46 °FFog.6 mph93%30.30 "Hg3 mi
7:20 PM46 °FFog.3 mph100%30.30 "Hg2 mi
6:20 PM48 °FFog.2 mph94%30.27 "Hg1 mi
5:20 PM48 °FFog.1 mph94%30.27 "Hg1 mi
4:20 PM48 °FDrizzle. Fog.5 mph94%30.21 "Hg1 mi
3:48 PM46 °FDrizzle. Fog.6 mph100%30.21 "Hg1 mi
3:20 PM46 °FDrizzle. Fog.6 mph100%30.21 "Hg1 mi
3:04 PM48 °FDrizzle. Fog.5 mph94%30.21 "Hg1 mi
2:20 PM48 °FFog.5 mph94%30.21 "Hg2 mi
1:20 PM46 °FDrizzle. Fog.7 mph100%30.18 "Hg1 mi
12:20 PM46 °FDrizzle. Fog.6 mph100%30.18 "Hg2 mi
11:20 AM46 °FDrizzle. Fog.5 mph100%30.15 "Hg2 mi
10:20 AM46 °FDrizzle. Fog.5 mph100%30.15 "Hg2 mi
9:47 AM46 °FDrizzle. Fog.5 mph100%30.12 "Hg2 mi
9:20 AM46 °FDrizzle. Fog.5 mph100%30.12 "Hg1 mi
8:20 AM46 °FDrizzle. Fog.6 mph100%30.09 "Hg1 mi
7:20 AM46 °FDrizzle. Fog.6 mph100%30.07 "Hg1 mi
6:20 AM46 °FDrizzle. Fog.2 mph100%30.07 "Hg1 mi
5:20 AM46 °FCool.2 mph100%30.04 "Hg1 mi
4:20 AM46 °FCool.3 mph93%30.04 "Hg2 mi
3:20 AM46 °FCool.6 mph93%30.01 "Hg2 mi
2:20 AM46 °FCool.6 mph93%30.01 "Hg3 mi
Weather by CustomWeather, © 2016

See weather overviewHow to use our weather pages